<?xml version="1.0" encoding="UTF-8" standalone="no" ?>
<gpx xmlns="http://www.topografix.com/GPX/1/1" xmlns:xsi="http://www.w3.org/2001/XMLSchema-instance" xsi:schemaLocation="http://www.topografix.com/GPX/1/1 http://www.topografix.com/GPX/1/1/gpx.xsd" version="1.1" creator="VisuGPX - https://www.visugpx.com">
  <metadata>
    <name>Slip2Bain 2k11 Summer Tour allé par voie verte</name>
    <desc><![CDATA[nontron => oléron via la voie verte jusqu\'à angoulême]]></desc>
  </metadata>
  <trk>
    <name><![CDATA[ACTIVE LOG141246]]></name>
    <trkseg>
      <trkpt lat="45.82993" lon="-1.11846">
        <ele>11.701</ele>
        <time>2011-07-14T12:12:46Z</time>
      </trkpt>
      <trkpt lat="45.82993" lon="-1.11848">
        <ele>10.525</ele>
        <time>2011-07-14T12:14:51Z</time>
      </trkpt>
      <trkpt lat="45.82989" lon="-1.11851">
        <ele>10.409</ele>
        <time>2011-07-14T12:14:55Z</time>
      </trkpt>
      <trkpt lat="45.8298" lon="-1.11859">
        <ele>10.199</ele>
        <time>2011-07-14T12:15:00Z</time>
      </trkpt>
      <trkpt lat="45.82979" lon="-1.11877">
        <ele>9.428</ele>
        <time>2011-07-14T12:15:06Z</time>
      </trkpt>
      <trkpt lat="45.83006" lon="-1.11927">
        <ele>9.112</ele>
        <time>2011-07-14T12:15:21Z</time>
      </trkpt>
      <trkpt lat="45.83034" lon="-1.11933">
        <ele>9.701</ele>
        <time>2011-07-14T12:15:29Z</time>
      </trkpt>
      <trkpt lat="45.83061" lon="-1.11979">
        <ele>10.783</ele>
        <time>2011-07-14T12:15:39Z</time>
      </trkpt>
      <trkpt lat="45.83088" lon="-1.12081">
        <ele>9.129</ele>
        <time>2011-07-14T12:15:52Z</time>
      </trkpt>
      <trkpt lat="45.83128" lon="-1.1224">
        <ele>6.677</ele>
        <time>2011-07-14T12:16:10Z</time>
      </trkpt>
      <trkpt lat="45.8319" lon="-1.12387">
        <ele>6.254</ele>
        <time>2011-07-14T12:16:28Z</time>
      </trkpt>
      <trkpt lat="45.83263" lon="-1.12549">
        <ele>6.655</ele>
        <time>2011-07-14T12:16:49Z</time>
      </trkpt>
      <trkpt lat="45.83337" lon="-1.12717">
        <ele>7.333</ele>
        <time>2011-07-14T12:17:10Z</time>
      </trkpt>
      <trkpt lat="45.83407" lon="-1.12873">
        <ele>7.351</ele>
        <time>2011-07-14T12:17:30Z</time>
      </trkpt>
      <trkpt lat="45.83494" lon="-1.13072">
        <ele>8.037</ele>
        <time>2011-07-14T12:17:55Z</time>
      </trkpt>
      <trkpt lat="45.83552" lon="-1.13208">
        <ele>6.283</ele>
        <time>2011-07-14T12:18:12Z</time>
      </trkpt>
      <trkpt lat="45.83614" lon="-1.13338">
        <ele>5.625</ele>
        <time>2011-07-14T12:18:30Z</time>
      </trkpt>
      <trkpt lat="45.83687" lon="-1.13502">
        <ele>5.806</ele>
        <time>2011-07-14T12:18:50Z</time>
      </trkpt>
      <trkpt lat="45.83756" lon="-1.13674">
        <ele>3.853</ele>
        <time>2011-07-14T12:19:10Z</time>
      </trkpt>
      <trkpt lat="45.83763" lon="-1.1372">
        <ele>3.376</ele>
        <time>2011-07-14T12:19:15Z</time>
      </trkpt>
      <trkpt lat="45.83764" lon="-1.13747">
        <ele>3.477</ele>
        <time>2011-07-14T12:19:18Z</time>
      </trkpt>
      <trkpt lat="45.83776" lon="-1.13772">
        <ele>4.125</ele>
        <time>2011-07-14T12:19:22Z</time>
      </trkpt>
      <trkpt lat="45.83789" lon="-1.13814">
        <ele>4.822</ele>
        <time>2011-07-14T12:19:28Z</time>
      </trkpt>
      <trkpt lat="45.83788" lon="-1.1383">
        <ele>4.176</ele>
        <time>2011-07-14T12:19:30Z</time>
      </trkpt>
      <trkpt lat="45.83812" lon="-1.13937">
        <ele>5.651</ele>
        <time>2011-07-14T12:19:43Z</time>
      </trkpt>
      <trkpt lat="45.83838" lon="-1.14076">
        <ele>6.524</ele>
        <time>2011-07-14T12:19:59Z</time>
      </trkpt>
      <trkpt lat="45.83856" lon="-1.14222">
        <ele>5.937</ele>
        <time>2011-07-14T12:20:16Z</time>
      </trkpt>
      <trkpt lat="45.83887" lon="-1.14436">
        <ele>5.045</ele>
        <time>2011-07-14T12:20:40Z</time>
      </trkpt>
      <trkpt lat="45.83942" lon="-1.1462">
        <ele>4.796</ele>
        <time>2011-07-14T12:21:01Z</time>
      </trkpt>
      <trkpt lat="45.83973" lon="-1.14691">
        <ele>4.234</ele>
        <time>2011-07-14T12:21:10Z</time>
      </trkpt>
      <trkpt lat="45.84018" lon="-1.14804">
        <ele>4.268</ele>
        <time>2011-07-14T12:21:24Z</time>
      </trkpt>
      <trkpt lat="45.84078" lon="-1.14849">
        <ele>3.357</ele>
        <time>2011-07-14T12:21:34Z</time>
      </trkpt>
      <trkpt lat="45.84154" lon="-1.14931">
        <ele>2.709</ele>
        <time>2011-07-14T12:21:48Z</time>
      </trkpt>
      <trkpt lat="45.84283" lon="-1.15086">
        <ele>1.619</ele>
        <time>2011-07-14T12:22:12Z</time>
      </trkpt>
      <trkpt lat="45.84374" lon="-1.15216">
        <ele>0.481</ele>
        <time>2011-07-14T12:22:29Z</time>
      </trkpt>
      <trkpt lat="45.84478" lon="-1.154">
        <ele>1.923</ele>
        <time>2011-07-14T12:22:53Z</time>
      </trkpt>
      <trkpt lat="45.84542" lon="-1.15563">
        <ele>2.777</ele>
        <time>2011-07-14T12:23:13Z</time>
      </trkpt>
      <trkpt lat="45.84586" lon="-1.15738">
        <ele>3.198</ele>
        <time>2011-07-14T12:23:33Z</time>
      </trkpt>
      <trkpt lat="45.84604" lon="-1.15869">
        <ele>4.173</ele>
        <time>2011-07-14T12:23:48Z</time>
      </trkpt>
      <trkpt lat="45.846" lon="-1.1604">
        <ele>2.734</ele>
        <time>2011-07-14T12:24:07Z</time>
      </trkpt>
      <trkpt lat="45.84602" lon="-1.16221">
        <ele>3.603</ele>
        <time>2011-07-14T12:24:28Z</time>
      </trkpt>
      <trkpt lat="45.84604" lon="-1.1634">
        <ele>4.292</ele>
        <time>2011-07-14T12:24:42Z</time>
      </trkpt>
      <trkpt lat="45.84591" lon="-1.16398">
        <ele>4.521</ele>
        <time>2011-07-14T12:24:49Z</time>
      </trkpt>
      <trkpt lat="45.84585" lon="-1.16557">
        <ele>4.25</ele>
        <time>2011-07-14T12:25:08Z</time>
      </trkpt>
      <trkpt lat="45.84601" lon="-1.16732">
        <ele>4.937</ele>
        <time>2011-07-14T12:25:29Z</time>
      </trkpt>
      <trkpt lat="45.8465" lon="-1.16894">
        <ele>7.116</ele>
        <time>2011-07-14T12:25:51Z</time>
      </trkpt>
      <trkpt lat="45.84718" lon="-1.1702">
        <ele>8.815</ele>
        <time>2011-07-14T12:26:13Z</time>
      </trkpt>
      <trkpt lat="45.84792" lon="-1.17144">
        <ele>12.309</ele>
        <time>2011-07-14T12:26:36Z</time>
      </trkpt>
      <trkpt lat="45.84863" lon="-1.17261">
        <ele>12.94</ele>
        <time>2011-07-14T12:26:59Z</time>
      </trkpt>
      <trkpt lat="45.84883" lon="-1.17294">
        <ele>14.183</ele>
        <time>2011-07-14T12:27:06Z</time>
      </trkpt>
      <trkpt lat="45.84935" lon="-1.17379">
        <ele>15.861</ele>
        <time>2011-07-14T12:27:23Z</time>
      </trkpt>
      <trkpt lat="45.85026" lon="-1.17531">
        <ele>18.223</ele>
        <time>2011-07-14T12:27:51Z</time>
      </trkpt>
      <trkpt lat="45.85104" lon="-1.1766">
        <ele>19.053</ele>
        <time>2011-07-14T12:28:14Z</time>
      </trkpt>
      <trkpt lat="45.85193" lon="-1.17807">
        <ele>19.62</ele>
        <time>2011-07-14T12:28:39Z</time>
      </trkpt>
      <trkpt lat="45.85277" lon="-1.17948">
        <ele>21.739</ele>
        <time>2011-07-14T12:29:02Z</time>
      </trkpt>
      <trkpt lat="45.85366" lon="-1.18096">
        <ele>21.284</ele>
        <time>2011-07-14T12:29:26Z</time>
      </trkpt>
      <trkpt lat="45.85451" lon="-1.18236">
        <ele>20.587</ele>
        <time>2011-07-14T12:29:49Z</time>
      </trkpt>
      <trkpt lat="45.85518" lon="-1.18346">
        <ele>19.592</ele>
        <time>2011-07-14T12:30:07Z</time>
      </trkpt>
      <trkpt lat="45.85575" lon="-1.18439">
        <ele>19.286</ele>
        <time>2011-07-14T12:30:23Z</time>
      </trkpt>
      <trkpt lat="45.85669" lon="-1.18597">
        <ele>18.368</ele>
        <time>2011-07-14T12:30:49Z</time>
      </trkpt>
      <trkpt lat="45.85769" lon="-1.18764">
        <ele>16.261</ele>
        <time>2011-07-14T12:31:15Z</time>
      </trkpt>
      <trkpt lat="45.85852" lon="-1.189">
        <ele>14.109</ele>
        <time>2011-07-14T12:31:35Z</time>
      </trkpt>
      <trkpt lat="45.85949" lon="-1.1906">
        <ele>10.438</ele>
        <time>2011-07-14T12:31:57Z</time>
      </trkpt>
      <trkpt lat="45.86039" lon="-1.1921">
        <ele>7.866</ele>
        <time>2011-07-14T12:32:17Z</time>
      </trkpt>
      <trkpt lat="45.8612" lon="-1.19344">
        <ele>7.118</ele>
        <time>2011-07-14T12:32:36Z</time>
      </trkpt>
      <trkpt lat="45.8619" lon="-1.1946">
        <ele>6.175</ele>
        <time>2011-07-14T12:32:54Z</time>
      </trkpt>
      <trkpt lat="45.86276" lon="-1.19603">
        <ele>3.677</ele>
        <time>2011-07-14T12:33:15Z</time>
      </trkpt>
      <trkpt lat="45.86349" lon="-1.19716">
        <ele>1.738</ele>
        <time>2011-07-14T12:33:35Z</time>
      </trkpt>
      <trkpt lat="45.86419" lon="-1.19812">
        <ele>1.22</ele>
        <time>2011-07-14T12:33:52Z</time>
      </trkpt>
      <trkpt lat="45.86494" lon="-1.19939">
        <ele>0.752</ele>
        <time>2011-07-14T12:34:13Z</time>
      </trkpt>
      <trkpt lat="45.86563" lon="-1.20054">
        <ele>1.247</ele>
        <time>2011-07-14T12:34:31Z</time>
      </trkpt>
      <trkpt lat="45.86576" lon="-1.20065">
        <ele>1.057</ele>
        <time>2011-07-14T12:34:36Z</time>
      </trkpt>
      <trkpt lat="45.86576" lon="-1.20069">
        <ele>0.373</ele>
        <time>2011-07-14T12:34:43Z</time>
      </trkpt>
      <trkpt lat="45.86574" lon="-1.2007">
        <ele>-0.26</ele>
        <time>2011-07-14T12:34:52Z</time>
      </trkpt>
      <trkpt lat="45.86547" lon="-1.20085">
        <ele>-0.634</ele>
        <time>2011-07-14T12:35:05Z</time>
      </trkpt>
      <trkpt lat="45.86542" lon="-1.20091">
        <ele>-0.68</ele>
        <time>2011-07-14T12:35:08Z</time>
      </trkpt>
      <trkpt lat="45.86543" lon="-1.20098">
        <ele>0.02</ele>
        <time>2011-07-14T12:35:20Z</time>
      </trkpt>
      <trkpt lat="45.86543" lon="-1.20099">
        <ele>0.059</ele>
        <time>2011-07-14T12:39:35Z</time>
      </trkpt>
      <trkpt lat="45.86569" lon="-1.2013">
        <ele>1.511</ele>
        <time>2011-07-14T12:39:48Z</time>
      </trkpt>
      <trkpt lat="45.86628" lon="-1.20218">
        <ele>2.83</ele>
        <time>2011-07-14T12:40:07Z</time>
      </trkpt>
      <trkpt lat="45.86687" lon="-1.2033">
        <ele>1.496</ele>
        <time>2011-07-14T12:40:26Z</time>
      </trkpt>
      <trkpt lat="45.86733" lon="-1.2043">
        <ele>1.6</ele>
        <time>2011-07-14T12:40:43Z</time>
      </trkpt>
      <trkpt lat="45.86785" lon="-1.20558">
        <ele>3.815</ele>
        <time>2011-07-14T12:41:03Z</time>
      </trkpt>
      <trkpt lat="45.86845" lon="-1.20738">
        <ele>3.386</ele>
        <time>2011-07-14T12:41:27Z</time>
      </trkpt>
      <trkpt lat="45.86879" lon="-1.20867">
        <ele>3.377</ele>
        <time>2011-07-14T12:41:44Z</time>
      </trkpt>
      <trkpt lat="45.8688" lon="-1.20896">
        <ele>2.164</ele>
        <time>2011-07-14T12:41:49Z</time>
      </trkpt>
      <trkpt lat="45.86877" lon="-1.20915">
        <ele>1.394</ele>
        <time>2011-07-14T12:41:54Z</time>
      </trkpt>
      <trkpt lat="45.86869" lon="-1.20924">
        <ele>0.459</ele>
        <time>2011-07-14T12:41:58Z</time>
      </trkpt>
      <trkpt lat="45.86862" lon="-1.20927">
        <ele>0.412</ele>
        <time>2011-07-14T12:42:00Z</time>
      </trkpt>
      <trkpt lat="45.868" lon="-1.20958">
        <ele>0.229</ele>
        <time>2011-07-14T12:42:14Z</time>
      </trkpt>
      <trkpt lat="45.86789" lon="-1.20966">
        <ele>0.426</ele>
        <time>2011-07-14T12:42:17Z</time>
      </trkpt>
      <trkpt lat="45.86788" lon="-1.20989">
        <ele>1.349</ele>
        <time>2011-07-14T12:42:22Z</time>
      </trkpt>
      <trkpt lat="45.86843" lon="-1.21092">
        <ele>0.966</ele>
        <time>2011-07-14T12:42:41Z</time>
      </trkpt>
      <trkpt lat="45.86936" lon="-1.21271">
        <ele>0.903</ele>
        <time>2011-07-14T12:43:09Z</time>
      </trkpt>
      <trkpt lat="45.86988" lon="-1.21402">
        <ele>1.4</ele>
        <time>2011-07-14T12:43:28Z</time>
      </trkpt>
      <trkpt lat="45.87035" lon="-1.21525">
        <ele>1.175</ele>
        <time>2011-07-14T12:43:46Z</time>
      </trkpt>
      <trkpt lat="45.87093" lon="-1.21672">
        <ele>1.395</ele>
        <time>2011-07-14T12:44:09Z</time>
      </trkpt>
      <trkpt lat="45.87101" lon="-1.21696">
        <ele>1.657</ele>
        <time>2011-07-14T12:44:13Z</time>
      </trkpt>
      <trkpt lat="45.8711" lon="-1.21765">
        <ele>0.798</ele>
        <time>2011-07-14T12:44:26Z</time>
      </trkpt>
      <trkpt lat="45.87109" lon="-1.2178">
        <ele>0.555</ele>
        <time>2011-07-14T12:44:32Z</time>
      </trkpt>
      <trkpt lat="45.87109" lon="-1.21795">
        <ele>0.425</ele>
        <time>2011-07-14T12:44:39Z</time>
      </trkpt>
      <trkpt lat="45.87077" lon="-1.21842">
        <ele>1.497</ele>
        <time>2011-07-14T12:44:54Z</time>
      </trkpt>
      <trkpt lat="45.87048" lon="-1.21876">
        <ele>1.704</ele>
        <time>2011-07-14T12:45:02Z</time>
      </trkpt>
      <trkpt lat="45.87032" lon="-1.21891">
        <ele>2.584</ele>
        <time>2011-07-14T12:45:06Z</time>
      </trkpt>
      <trkpt lat="45.86995" lon="-1.21915">
        <ele>3.308</ele>
        <time>2011-07-14T12:45:14Z</time>
      </trkpt>
      <trkpt lat="45.86978" lon="-1.2193">
        <ele>2.095</ele>
        <time>2011-07-14T12:45:18Z</time>
      </trkpt>
      <trkpt lat="45.86916" lon="-1.21982">
        <ele>1.198</ele>
        <time>2011-07-14T12:45:32Z</time>
      </trkpt>
      <trkpt lat="45.8689" lon="-1.21994">
        <ele>1.462</ele>
        <time>2011-07-14T12:45:37Z</time>
      </trkpt>
      <trkpt lat="45.86809" lon="-1.22017">
        <ele>0.743</ele>
        <time>2011-07-14T12:45:52Z</time>
      </trkpt>
      <trkpt lat="45.86759" lon="-1.22037">
        <ele>0.22</ele>
        <time>2011-07-14T12:46:05Z</time>
      </trkpt>
      <trkpt lat="45.86746" lon="-1.2204">
        <ele>0.744</ele>
        <time>2011-07-14T12:46:08Z</time>
      </trkpt>
      <trkpt lat="45.86731" lon="-1.22038">
        <ele>0.858</ele>
        <time>2011-07-14T12:46:12Z</time>
      </trkpt>
      <trkpt lat="45.86722" lon="-1.22035">
        <ele>0.528</ele>
        <time>2011-07-14T12:46:14Z</time>
      </trkpt>
      <trkpt lat="45.867" lon="-1.2204">
        <ele>0.523</ele>
        <time>2011-07-14T12:46:19Z</time>
      </trkpt>
      <trkpt lat="45.86621" lon="-1.22113">
        <ele>-0.248</ele>
        <time>2011-07-14T12:46:37Z</time>
      </trkpt>
      <trkpt lat="45.86612" lon="-1.22121">
        <ele>-0.527</ele>
        <time>2011-07-14T12:46:39Z</time>
      </trkpt>
      <trkpt lat="45.866" lon="-1.22164">
        <ele>-0.956</ele>
        <time>2011-07-14T12:46:45Z</time>
      </trkpt>
      <trkpt lat="45.86606" lon="-1.2222">
        <ele>0.089</ele>
        <time>2011-07-14T12:46:52Z</time>
      </trkpt>
      <trkpt lat="45.86581" lon="-1.2233">
        <ele>-0.74</ele>
        <time>2011-07-14T12:47:07Z</time>
      </trkpt>
      <trkpt lat="45.86574" lon="-1.22355">
        <ele>-0.962</ele>
        <time>2011-07-14T12:47:11Z</time>
      </trkpt>
      <trkpt lat="45.86551" lon="-1.2242">
        <ele>-0.927</ele>
        <time>2011-07-14T12:47:24Z</time>
      </trkpt>
      <trkpt lat="45.86542" lon="-1.22431">
        <ele>-0.909</ele>
        <time>2011-07-14T12:47:28Z</time>
      </trkpt>
      <trkpt lat="45.86536" lon="-1.22443">
        <ele>-0.718</ele>
        <time>2011-07-14T12:47:31Z</time>
      </trkpt>
      <trkpt lat="45.8651" lon="-1.22475">
        <ele>-1.206</ele>
        <time>2011-07-14T12:47:39Z</time>
      </trkpt>
      <trkpt lat="45.86497" lon="-1.225">
        <ele>-0.866</ele>
        <time>2011-07-14T12:47:44Z</time>
      </trkpt>
      <trkpt lat="45.86472" lon="-1.22588">
        <ele>-2.782</ele>
        <time>2011-07-14T12:48:01Z</time>
      </trkpt>
      <trkpt lat="45.86468" lon="-1.22601">
        <ele>-2.913</ele>
        <time>2011-07-14T12:48:03Z</time>
      </trkpt>
      <trkpt lat="45.86446" lon="-1.2267">
        <ele>-3.093</ele>
        <time>2011-07-14T12:48:13Z</time>
      </trkpt>
      <trkpt lat="45.8644" lon="-1.22683">
        <ele>-3.348</ele>
        <time>2011-07-14T12:48:15Z</time>
      </trkpt>
      <trkpt lat="45.86396" lon="-1.22744">
        <ele>-2.503</ele>
        <time>2011-07-14T12:48:30Z</time>
      </trkpt>
      <trkpt lat="45.8638" lon="-1.22774">
        <ele>-2.993</ele>
        <time>2011-07-14T12:48:42Z</time>
      </trkpt>
      <trkpt lat="45.86373" lon="-1.22786">
        <ele>-2.441</ele>
        <time>2011-07-14T12:48:45Z</time>
      </trkpt>
      <trkpt lat="45.86346" lon="-1.22836">
        <ele>-3.28</ele>
        <time>2011-07-14T12:48:59Z</time>
      </trkpt>
      <trkpt lat="45.86344" lon="-1.22841">
        <ele>-3.429</ele>
        <time>2011-07-14T12:49:01Z</time>
      </trkpt>
      <trkpt lat="45.86349" lon="-1.22852">
        <ele>-2.511</ele>
        <time>2011-07-14T12:49:05Z</time>
      </trkpt>
      <trkpt lat="45.86351" lon="-1.22879">
        <ele>-2.313</ele>
        <time>2011-07-14T12:49:09Z</time>
      </trkpt>
      <trkpt lat="45.86352" lon="-1.22947">
        <ele>-1.448</ele>
        <time>2011-07-14T12:49:17Z</time>
      </trkpt>
      <trkpt lat="45.86314" lon="-1.23069">
        <ele>-1.961</ele>
        <time>2011-07-14T12:49:32Z</time>
      </trkpt>
      <trkpt lat="45.86307" lon="-1.23084">
        <ele>-1.742</ele>
        <time>2011-07-14T12:49:34Z</time>
      </trkpt>
      <trkpt lat="45.8629" lon="-1.23106">
        <ele>-2.397</ele>
        <time>2011-07-14T12:49:38Z</time>
      </trkpt>
      <trkpt lat="45.8628" lon="-1.23113">
        <ele>-2.315</ele>
        <time>2011-07-14T12:49:40Z</time>
      </trkpt>
      <trkpt lat="45.86252" lon="-1.23121">
        <ele>-2.094</ele>
        <time>2011-07-14T12:49:46Z</time>
      </trkpt>
      <trkpt lat="45.86257" lon="-1.23112">
        <ele>-1.605</ele>
        <time>2011-07-14T12:49:53Z</time>
      </trkpt>
      <trkpt lat="45.86285" lon="-1.23105">
        <ele>-1.908</ele>
        <time>2011-07-14T12:50:06Z</time>
      </trkpt>
      <trkpt lat="45.86285" lon="-1.23105">
        <ele>-1.559</ele>
        <time>2011-07-14T12:50:11Z</time>
      </trkpt>
      <trkpt lat="45.86284" lon="-1.2311">
        <ele>-1.484</ele>
        <time>2011-07-14T12:50:15Z</time>
      </trkpt>
      <trkpt lat="45.86246" lon="-1.23118">
        <ele>-1.454</ele>
        <time>2011-07-14T12:50:29Z</time>
      </trkpt>
      <trkpt lat="45.86234" lon="-1.2312">
        <ele>-1.028</ele>
        <time>2011-07-14T12:50:32Z</time>
      </trkpt>
      <trkpt lat="45.86212" lon="-1.23116">
        <ele>-0.622</ele>
        <time>2011-07-14T12:50:37Z</time>
      </trkpt>
      <trkpt lat="45.86188" lon="-1.23101">
        <ele>-1.183</ele>
        <time>2011-07-14T12:50:42Z</time>
      </trkpt>
      <trkpt lat="45.86151" lon="-1.23039">
        <ele>-0.132</ele>
        <time>2011-07-14T12:50:53Z</time>
      </trkpt>
      <trkpt lat="45.86133" lon="-1.23035">
        <ele>0.474</ele>
        <time>2011-07-14T12:50:57Z</time>
      </trkpt>
      <trkpt lat="45.86085" lon="-1.23065">
        <ele>2.006</ele>
        <time>2011-07-14T12:51:07Z</time>
      </trkpt>
      <trkpt lat="45.86084" lon="-1.23087">
        <ele>2.923</ele>
        <time>2011-07-14T12:51:13Z</time>
      </trkpt>
      <trkpt lat="45.86144" lon="-1.23162">
        <ele>3.276</ele>
        <time>2011-07-14T12:51:30Z</time>
      </trkpt>
      <trkpt lat="45.86176" lon="-1.232">
        <ele>1.388</ele>
        <time>2011-07-14T12:51:37Z</time>
      </trkpt>
      <trkpt lat="45.86224" lon="-1.23315">
        <ele>1.996</ele>
        <time>2011-07-14T12:51:53Z</time>
      </trkpt>
      <trkpt lat="45.86229" lon="-1.2333">
        <ele>1.723</ele>
        <time>2011-07-14T12:51:55Z</time>
      </trkpt>
      <trkpt lat="45.86245" lon="-1.23375">
        <ele>1.67</ele>
        <time>2011-07-14T12:52:01Z</time>
      </trkpt>
      <trkpt lat="45.86259" lon="-1.23416">
        <ele>1.589</ele>
        <time>2011-07-14T12:52:07Z</time>
      </trkpt>
      <trkpt lat="45.8627" lon="-1.23439">
        <ele>1.278</ele>
        <time>2011-07-14T12:52:11Z</time>
      </trkpt>
      <trkpt lat="45.86282" lon="-1.23454">
        <ele>1.432</ele>
        <time>2011-07-14T12:52:15Z</time>
      </trkpt>
      <trkpt lat="45.86277" lon="-1.23471">
        <ele>1.442</ele>
        <time>2011-07-14T12:52:21Z</time>
      </trkpt>
      <trkpt lat="45.86208" lon="-1.23506">
        <ele>1.416</ele>
        <time>2011-07-14T12:52:38Z</time>
      </trkpt>
      <trkpt lat="45.86203" lon="-1.23509">
        <ele>1.465</ele>
        <time>2011-07-14T12:52:39Z</time>
      </trkpt>
      <trkpt lat="45.86185" lon="-1.23533">
        <ele>2.937</ele>
        <time>2011-07-14T12:52:44Z</time>
      </trkpt>
      <trkpt lat="45.8618" lon="-1.23546">
        <ele>2.983</ele>
        <time>2011-07-14T12:52:46Z</time>
      </trkpt>
      <trkpt lat="45.86172" lon="-1.23592">
        <ele>2.895</ele>
        <time>2011-07-14T12:52:52Z</time>
      </trkpt>
      <trkpt lat="45.86199" lon="-1.23732">
        <ele>2.692</ele>
        <time>2011-07-14T12:53:10Z</time>
      </trkpt>
      <trkpt lat="45.86223" lon="-1.23796">
        <ele>1.915</ele>
        <time>2011-07-14T12:53:20Z</time>
      </trkpt>
      <trkpt lat="45.86215" lon="-1.23813">
        <ele>3.033</ele>
        <time>2011-07-14T12:53:25Z</time>
      </trkpt>
      <trkpt lat="45.86203" lon="-1.23816">
        <ele>3.187</ele>
        <time>2011-07-14T12:53:28Z</time>
      </trkpt>
      <trkpt lat="45.86125" lon="-1.23903">
        <ele>7.011</ele>
        <time>2011-07-14T12:53:47Z</time>
      </trkpt>
      <trkpt lat="45.86061" lon="-1.23972">
        <ele>6.857</ele>
        <time>2011-07-14T12:54:02Z</time>
      </trkpt>
      <trkpt lat="45.85982" lon="-1.24063">
        <ele>6.8</ele>
        <time>2011-07-14T12:54:21Z</time>
      </trkpt>
      <trkpt lat="45.85957" lon="-1.2409">
        <ele>7.159</ele>
        <time>2011-07-14T12:54:27Z</time>
      </trkpt>
      <trkpt lat="45.8595" lon="-1.241">
        <ele>7.79</ele>
        <time>2011-07-14T12:54:29Z</time>
      </trkpt>
      <trkpt lat="45.8593" lon="-1.24119">
        <ele>6.855</ele>
        <time>2011-07-14T12:54:35Z</time>
      </trkpt>
      <trkpt lat="45.85893" lon="-1.24164">
        <ele>6.306</ele>
        <time>2011-07-14T12:54:49Z</time>
      </trkpt>
      <trkpt lat="45.85893" lon="-1.24163">
        <ele>9.022</ele>
        <time>2011-07-14T12:55:01Z</time>
      </trkpt>
      <trkpt lat="45.85899" lon="-1.24193">
        <ele>7.981</ele>
        <time>2011-07-14T12:55:09Z</time>
      </trkpt>
      <trkpt lat="45.85893" lon="-1.24245">
        <ele>8.411</ele>
        <time>2011-07-14T12:55:18Z</time>
      </trkpt>
      <trkpt lat="45.85895" lon="-1.24291">
        <ele>4.577</ele>
        <time>2011-07-14T12:55:26Z</time>
      </trkpt>
      <trkpt lat="45.85856" lon="-1.24316">
        <ele>-2.268</ele>
        <time>2011-07-14T12:55:34Z</time>
      </trkpt>
      <trkpt lat="45.85825" lon="-1.24316">
        <ele>-5.391</ele>
        <time>2011-07-14T12:55:39Z</time>
      </trkpt>
      <trkpt lat="45.85804" lon="-1.24321">
        <ele>-2.6</ele>
        <time>2011-07-14T12:55:42Z</time>
      </trkpt>
      <trkpt lat="45.85784" lon="-1.24336">
        <ele>-2.976</ele>
        <time>2011-07-14T12:55:46Z</time>
      </trkpt>
      <trkpt lat="45.85741" lon="-1.24386">
        <ele>-2.965</ele>
        <time>2011-07-14T12:55:55Z</time>
      </trkpt>
      <trkpt lat="45.85729" lon="-1.24409">
        <ele>-1.704</ele>
        <time>2011-07-14T12:55:59Z</time>
      </trkpt>
      <trkpt lat="45.85711" lon="-1.24429">
        <ele>1.367</ele>
        <time>2011-07-14T12:56:03Z</time>
      </trkpt>
      <trkpt lat="45.857" lon="-1.24438">
        <ele>2.803</ele>
        <time>2011-07-14T12:56:05Z</time>
      </trkpt>
      <trkpt lat="45.85657" lon="-1.24496">
        <ele>4.812</ele>
        <time>2011-07-14T12:56:15Z</time>
      </trkpt>
      <trkpt lat="45.85646" lon="-1.24521">
        <ele>4.653</ele>
        <time>2011-07-14T12:56:19Z</time>
      </trkpt>
      <trkpt lat="45.85615" lon="-1.24547">
        <ele>4.18</ele>
        <time>2011-07-14T12:56:26Z</time>
      </trkpt>
      <trkpt lat="45.85593" lon="-1.24547">
        <ele>3.621</ele>
        <time>2011-07-14T12:56:30Z</time>
      </trkpt>
      <trkpt lat="45.85556" lon="-1.24563">
        <ele>3.775</ele>
        <time>2011-07-14T12:56:36Z</time>
      </trkpt>
      <trkpt lat="45.85487" lon="-1.24643">
        <ele>3.892</ele>
        <time>2011-07-14T12:56:51Z</time>
      </trkpt>
      <trkpt lat="45.85478" lon="-1.2465">
        <ele>3.518</ele>
        <time>2011-07-14T12:56:53Z</time>
      </trkpt>
      <trkpt lat="45.85457" lon="-1.24675">
        <ele>3.037</ele>
        <time>2011-07-14T12:57:00Z</time>
      </trkpt>
      <trkpt lat="45.85436" lon="-1.24709">
        <ele>2.63</ele>
        <time>2011-07-14T12:57:07Z</time>
      </trkpt>
      <trkpt lat="45.85424" lon="-1.24729">
        <ele>2.315</ele>
        <time>2011-07-14T12:57:11Z</time>
      </trkpt>
      <trkpt lat="45.85357" lon="-1.24798">
        <ele>2.941</ele>
        <time>2011-07-14T12:57:26Z</time>
      </trkpt>
      <trkpt lat="45.85293" lon="-1.24871">
        <ele>0.08</ele>
        <time>2011-07-14T12:57:42Z</time>
      </trkpt>
      <trkpt lat="45.85229" lon="-1.2496">
        <ele>0.678</ele>
        <time>2011-07-14T12:57:58Z</time>
      </trkpt>
      <trkpt lat="45.85179" lon="-1.25035">
        <ele>0.516</ele>
        <time>2011-07-14T12:58:11Z</time>
      </trkpt>
      <trkpt lat="45.85162" lon="-1.25063">
        <ele>0.783</ele>
        <time>2011-07-14T12:58:16Z</time>
      </trkpt>
      <trkpt lat="45.85125" lon="-1.25092">
        <ele>0.903</ele>
        <time>2011-07-14T12:58:30Z</time>
      </trkpt>
      <trkpt lat="45.85117" lon="-1.25101">
        <ele>0.197</ele>
        <time>2011-07-14T12:58:41Z</time>
      </trkpt>
      <trkpt lat="45.85115" lon="-1.25107">
        <ele>0.257</ele>
        <time>2011-07-14T12:58:47Z</time>
      </trkpt>
      <trkpt lat="45.85113" lon="-1.25114">
        <ele>1.339</ele>
        <time>2011-07-14T12:59:03Z</time>
      </trkpt>
      <trkpt lat="45.85116" lon="-1.25124">
        <ele>1.278</ele>
        <time>2011-07-14T12:59:23Z</time>
      </trkpt>
    </trkseg>
  </trk>
</gpx>